Theta_e
310 310 307 314 317 321 322 323 322 321 321 320 321 321 323 322 321 324 323 325 322 322 327 327 318 317 316 318 318 317 315 316 317 314 315 315 315 316 319 325 327 327 325 328 334
309 310 308 310 312 321 321 322 321 320 318 318 320 322 323 321 321 322 322 324 324 321 325 328 321 318 317 316 316 315 316 317 315 314 314 314 316 317 321 325 325 326 326 329 334
312 313 310 309 310 311 322 322 320 318 317 318 320 323 323 321 320 321 320 323 324 322 322 323 322 318 319 317 315 313 317 313 315 315 315 314 314 318 320 323 323 323 325 332 334
313 313 311 310 312 311 316 321 319 318 317 317 320 324 323 322 318 319 319 322 323 323 321 316 319 320 321 320 316 316 314 314 314 314 314 314 315 316 320 319 320 322 323 331 333
311 313 313 311 313 313 314 321 319 318 317 318 320 324 323 315 319 320 319 320 321 322 322 319 320 320 322 320 318 317 315 315 314 315 314 314 314 315 317 318 318 321 323 328 333
308 311 313 313 314 313 313 321 319 318 317 318 321 321 322 316 319 319 319 318 320 320 321 322 321 321 319 317 321 318 316 316 317 315 313 313 312 314 316 318 317 320 323 326 331
307 309 311 314 314 314 314 320 320 318 317 318 320 322 320 320 319 319 318 318 318 319 320 322 322 322 316 316 317 312 315 314 313 314 313 312 313 312 315 317 319 322 325 327 330
307 309 310 312 312 314 314 320 319 318 316 318 320 322 320 320 319 319 318 316 317 318 321 322 323 322 319 320 319 316 312 314 314 311 313 311 316 313 314 318 321 322 325 327 327
308 309 309 311 313 314 314 319 318 317 315 317 320 321 318 320 319 319 318 316 316 317 319 321 322 320 319 321 323 319 319 313 313 310 310 310 314 312 313 317 322 325 326 326 326
307 308 311 311 312 314 317 319 318 316 317 319 320 318 314 318 319 318 316 316 316 317 318 320 319 317 319 324 328 323 322 313 311 311 309 310 310 310 311 319 320 324 326 325 326
306 307 309 313 313 313 319 319 318 318 319 318 316 316 316 317 319 316 316 317 315 316 317 314 319 325 322 323 322 322 321 322 311 310 310 310 310 313 310 313 321 323 325 326 326
305 306 310 314 314 314 319 318 316 316 318 317 317 315 315 317 318 317 318 317 318 318 313 314 319 318 319 321 317 322 323 320 314 309 310 310 310 311 307 308 312 319 323 325 325
302 306 310 313 315 319 318 317 316 316 314 313 311 312 315 317 318 318 319 318 317 318 317 317 317 315 319 320 323 317 324 322 321 309 308 308 312 310 307 308 310 311 315 321 323
302 304 308 313 314 317 317 314 318 317 314 312 311 311 314 317 316 318 319 318 317 319 318 319 316 314 316 318 320 321 315 311 310 311 321 308 314 311 308 307 305 310 311 314 319
304 304 309 310 317 317 316 317 316 315 320 310 310 310 313 315 314 317 315 316 318 315 315 317 314 315 315 316 314 318 314 313 310 310 307 306 310 312 305 307 307 307 311 314 314
306 303 306 309 316 314 315 317 315 317 317 310 309 309 311 311 311 312 313 314 315 314 313 312 310 313 313 311 315 310 313 313 312 310 316 310 312 310 314 309 308 307 311 315 315
305 304 303 306 313 315 315 315 316 320 307 308 309 310 310 310 312 314 311 313 317 319 317 313 312 310 308 309 311 313 315 317 318 315 315 303 308 314 308 305 308 310 313 315 316
304 304 304 305 310 316 313 315 319 310 310 307 309 310 311 310 311 312 312 314 308 311 317 318 318 312 309 308 311 314 315 316 318 315 311 302 309 310 306 310 308 308 310 312 314
304 306 305 306 310 315 313 315 313 311 306 309 309 311 309 307 311 312 311 314 310 308 315 318 318 310 309 310 309 310 314 308 309 296 305 306 305 306 304 304 305 308 308 310 312
304 306 305 308 314 313 312 312 305 305 306 309 312 309 311 307 309 311 311 308 309 307 308 310 311 309 310 310 310 309 311 314 313 312 307 306 304 309 307 307 306 305 308 312 312
305 303 306 308 314 313 312 310 305 306 309 308 306 305 308 307 307 309 310 307 306 307 304 306 307 306 306 310 312 312 312 313 312 308 310 307 308 301 306 306 306 306 308 310 311
303 303 307 308 315 313 314 306 307 307 305 304 304 304 309 308 307 308 309 307 307 308 306 305 305 307 310 306 308 310 311 312 316 313 306 307 308 303 302 302 304 306 307 308 309
302 301 305 303 309 313 311 308 307 306 304 305 304 305 307 308 308 307 306 307 308 308 309 305 306 305 310 308 306 310 309 311 310 310 313 315 317 303 303 304 306 307 309 310 310
302 303 300 301 308 313 311 308 307 306 305 303 303 305 306 307 304 306 306 305 307 309 309 308 307 308 311 309 308 310 310 310 312 315 313 313 314 307 307 307 306 307 308 309 310
301 300 299 305 307 310 311 309 307 307 306 304 304 306 306 306 305 305 305 305 306 308 307 307 305 305 307 306 307 309 310 308 312 313 314 314 312 311 310 309 310 306 308 308 309
299 300 299 301 306 310 310 309 307 307 307 306 305 306 304 306 306 305 306 305 307 306 306 304 303 305 304 306 306 307 309 310 309 310 311 311 309 306 308 308 307 311 309 308 309
299 298 301 301 308 310 309 308 307 308 308 305 304 304 304 304 306 307 308 307 306 308 308 305 304 302 299 302 304 303 307 308 310 310 309 310 310 307 305 306 309 310 310 309 311
Wind_Speed
39 41 38 48 35 37 41 41 40 38 34 32 28 24 23 21 21 20 22 22 20 9 18 23 16 9 9 9 7 7 4 1 3 5 3 9 5 6 6 10 7 9 3 5 23
40 41 35 44 49 31 43 42 41 37 33 33 33 27 25 23 22 24 25 22 20 11 18 23 21 13 5 7 6 5 4 4 1 2 3 6 6 15 6 8 5 8 7 12 26
37 42 35 35 51 54 44 45 43 38 33 32 34 30 29 24 17 23 25 21 24 22 15 19 17 13 5 4 4 5 5 3 4 6 7 3 5 11 12 3 12 16 14 24 29
26 40 37 33 42 51 39 49 46 40 34 34 36 33 30 26 8 9 23 24 23 20 17 17 19 12 6 4 4 5 6 8 4 7 5 3 6 6 15 8 9 12 14 28 31
23 32 40 35 41 44 46 52 47 42 37 37 40 36 33 23 17 1 16 26 23 19 26 23 20 15 8 9 6 4 6 5 3 14 9 8 9 7 18 9 6 14 18 27 31
22 22 33 38 35 43 49 51 49 45 39 40 42 40 37 16 27 13 10 27 26 22 25 23 15 14 13 9 7 6 3 4 7 11 10 4 3 5 9 16 10 16 23 28 31
23 25 27 30 30 41 39 57 53 47 42 44 43 42 33 23 20 29 6 23 24 24 24 22 17 19 10 7 6 7 3 6 4 5 4 7 3 7 7 16 14 19 24 28 31
25 24 26 32 34 39 40 56 54 49 43 46 45 39 12 28 15 23 15 22 23 25 20 18 20 16 5 10 3 5 5 3 2 2 3 1 7 6 11 16 17 20 25 29 29
25 26 30 32 34 37 44 58 52 49 44 43 41 28 11 28 21 22 22 26 17 17 22 20 14 8 7 6 4 3 4 4 5 6 1 5 6 3 14 18 19 22 25 27 27
24 23 26 30 36 46 48 54 51 43 42 39 35 14 14 31 32 26 28 26 25 25 19 15 5 3 2 7 8 5 7 5 5 4 3 3 8 6 11 18 21 22 24 26 29
23 24 26 33 38 31 59 54 46 31 49 18 24 12 30 29 35 28 34 28 29 19 5 7 4 12 11 13 1 11 6 10 2 1 2 5 7 12 9 13 16 20 26 28 30
20 24 25 21 38 43 58 48 52 51 41 22 29 16 34 39 19 31 38 19 16 11 9 4 6 5 10 7 5 11 11 7 3 0 3 4 9 12 10 11 24 25 26 30 29
21 23 28 33 38 51 57 55 50 57 10 11 23 24 36 37 22 29 38 15 18 10 11 6 3 16 10 10 10 3 15 7 4 0 1 4 12 10 6 17 18 22 27 29 32
22 20 32 29 40 56 54 58 50 48 6 5 7 13 21 27 8 36 31 17 6 13 11 2 6 12 12 7 11 8 4 4 5 1 4 6 6 9 6 11 12 28 27 31 33
17 22 30 16 41 53 58 55 50 35 13 13 8 22 22 16 28 25 20 6 13 8 7 4 8 14 12 7 9 2 9 5 2 4 3 4 4 7 5 10 11 22 33 32 35
12 18 28 16 32 53 57 63 42 7 6 8 9 11 9 5 5 16 9 8 11 7 5 2 1 7 8 7 15 11 8 10 6 4 6 7 7 6 11 8 5 18 35 37 36
10 12 22 13 33 47 57 54 10 9 10 10 11 18 16 8 6 15 10 8 7 9 7 3 2 2 3 8 4 13 11 3 3 2 8 5 7 16 6 8 10 15 35 38 37
14 15 20 29 29 66 51 15 11 7 7 6 19 22 10 15 4 9 13 11 5 5 7 8 6 8 6 6 8 12 4 5 5 4 4 4 10 6 10 21 13 16 21 23 37
13 18 18 29 20 68 43 12 6 12 9 16 21 20 8 6 9 9 13 17 10 9 8 7 6 2 2 4 7 6 7 7 4 1 1 5 7 8 8 7 10 20 17 24 28
9 10 20 29 48 56 14 6 4 7 15 28 15 7 16 15 9 14 18 7 7 5 1 7 5 5 4 3 5 5 8 4 2 4 5 5 5 7 3 12 10 10 26 32 28
7 2 9 21 50 37 8 4 6 14 35 14 7 8 11 15 7 13 18 1 6 8 4 6 4 2 7 9 12 3 6 3 1 3 4 2 6 7 13 10 8 12 15 21 26
6 2 8 25 9 9 12 10 9 19 4 6 6 7 20 19 6 8 15 8 24 22 9 6 5 4 9 2 10 4 6 9 6 5 2 2 9 6 7 7 7 12 10 12 15
4 3 15 8 7 15 11 8 6 13 6 6 6 4 11 15 6 4 7 7 27 20 18 8 3 4 3 2 3 13 7 14 2 4 7 4 13 2 4 4 8 11 10 12 12
3 2 2 5 5 21 18 13 9 8 5 6 8 15 10 13 5 9 7 3 23 18 20 13 5 7 10 6 8 9 16 14 15 4 8 15 31 6 7 9 5 8 9 9 12
4 0 2 2 6 16 17 15 23 8 3 10 4 16 12 7 3 5 5 5 5 15 7 4 6 4 2 4 5 9 17 16 22 28 12 32 23 22 18 19 29 11 16 17 18
4 2 2 3 6 18 12 17 30 7 7 7 14 19 7 10 9 9 9 5 8 5 9 2 2 4 2 1 7 6 17 25 27 22 21 17 21 6 8 23 24 31 29 25 29
3 3 2 4 10 17 11 23 20 15 8 8 18 10 6 9 22 26 18 20 18 19 18 10 7 4 5 1 5 4 20 17 19 21 25 17 32 5 8 16 28 35 35 33 31
Wind_Direction
241 245 248 234 238 224 221 219 218 217 222 227 218 208 213 219 217 214 215 220 214 198 194 188 180 159 145 170 153 107 69 168 188 167 233 169 160 157 167 150 166 186 180 209 171
234 238 248 233 239 226 225 218 216 215 216 220 212 201 212 215 219 223 217 215 214 197 191 195 195 187 179 146 133 126 129 199 237 268 254 201 185 160 156 161 200 188 188 173 173
235 233 239 239 241 243 221 216 211 213 215 212 203 199 208 207 218 236 217 214 215 204 191 198 198 191 187 163 134 175 155 90 318 308 272 223 204 175 152 215 209 202 184 171 177
237 227 228 230 224 242 240 215 207 210 213 209 198 198 200 197 190 208 213 213 211 204 194 187 198 173 171 165 182 133 149 141 265 325 316 246 183 195 193 198 229 218 205 179 184
241 226 225 222 225 231 242 210 203 207 210 205 197 194 189 186 204 195 200 198 205 201 200 191 186 186 176 172 161 148 184 184 275 322 303 263 224 201 220 207 202 198 195 189 191
238 229 226 229 226 225 235 206 200 204 207 201 198 198 188 197 208 221 192 186 198 195 196 199 195 182 175 171 181 175 196 277 311 312 307 230 228 208 226 212 200 194 197 195 196
235 238 226 226 227 226 229 210 202 202 201 198 201 197 187 191 210 215 216 188 190 188 189 198 198 192 145 115 135 102 83 355 306 292 279 259 172 230 219 199 197 193 200 197 201
238 237 231 226 228 231 221 200 203 199 198 197 201 191 190 195 198 207 197 180 192 191 186 182 192 179 132 123 68 92 74 75 306 197 239 146 272 232 207 197 197 194 201 202 208
240 241 232 228 221 226 221 195 194 195 194 195 195 192 164 192 195 184 191 172 178 188 196 194 168 151 130 120 86 44 124 206 291 185 196 160 282 290 202 202 208 202 204 206 208
242 251 243 233 219 212 210 186 187 187 183 191 194 185 162 187 181 176 173 156 140 149 133 173 136 109 132 175 185 156 180 224 193 170 177 224 255 280 230 210 213 210 210 211 212
244 255 244 218 214 213 183 181 171 174 175 182 174 180 169 169 174 178 176 161 142 146 142 159 176 198 181 189 286 151 173 228 170 356 154 231 253 258 226 227 223 214 216 218 217
257 258 245 238 209 220 186 176 179 175 168 202 171 158 158 162 149 165 169 158 159 156 117 119 227 159 141 167 125 190 184 206 261 58 177 307 267 258 215 230 226 221 219 222 219
261 260 235 218 212 188 178 180 174 162 124 138 153 162 159 160 147 160 170 159 172 167 181 167 162 148 153 172 193 154 203 186 193 187 187 25 277 262 248 242 234 232 232 230 225
263 257 237 213 204 184 179 180 171 167 122 159 136 169 159 141 109 161 166 147 172 180 171 245 140 152 151 185 190 199 192 131 115 305 230 171 277 249 228 238 223 224 222 229 229
270 250 226 255 183 170 177 180 168 158 178 148 151 163 169 170 139 166 158 136 152 140 143 176 165 163 172 165 159 241 161 155 68 180 314 214 225 266 164 240 240 227 222 228 231
259 249 234 263 165 173 178 165 158 152 157 142 133 171 148 130 100 137 153 119 117 111 65 101 174 174 171 160 165 131 72 39 357 59 267 182 211 218 228 220 219 237 230 225 232
258 240 246 233 181 187 168 159 167 189 147 146 160 167 148 141 105 157 157 156 157 144 162 112 144 324 155 99 162 126 136 123 146 196 236 271 184 239 240 225 215 218 232 229 231
248 225 244 231 204 170 157 154 184 125 155 140 154 151 138 138 93 151 153 179 241 113 151 164 183 188 170 159 166 164 153 143 175 207 263 351 228 260 212 233 234 246 250 239 238
244 222 241 221 234 163 161 194 142 154 144 137 142 145 129 140 135 148 186 196 182 185 138 156 199 16 149 119 149 164 211 147 124 81 16 214 292 298 256 264 240 236 240 243 245
223 220 254 199 170 161 160 130 122 139 130 146 140 150 164 163 137 166 175 190 177 177 128 188 116 184 204 131 28 148 142 192 83 199 250 279 276 244 336 242 225 226 237 248 248
161 161 243 214 172 166 174 117 125 157 143 149 135 127 169 156 138 167 173 221 143 169 81 147 98 20 130 211 168 133 157 94 47 205 187 282 258 221 225 220 235 249 251 256 270
166 228 233 210 169 174 173 140 140 155 140 105 91 93 162 165 124 151 187 178 169 157 148 195 117 142 196 301 177 195 181 172 185 196 248 134 261 248 229 237 264 271 287 292 288
151 307 276 278 169 168 133 123 138 155 153 141 123 146 146 159 131 146 163 200 165 166 172 176 143 96 87 350 3 202 188 203 156 72 214 190 261 236 256 294 295 297 327 332 321
124 307 269 280 151 166 146 152 143 167 96 81 107 115 122 161 31 172 147 115 170 177 177 150 172 165 181 181 140 189 185 191 200 203 210 221 243 248 293 305 287 268 296 313 322
89 302 321 221 183 168 160 157 154 159 135 135 76 162 146 137 106 111 115 87 119 173 183 188 179 133 91 139 143 171 179 178 199 220 200 241 247 241 260 287 292 284 297 311 308
115 176 270 267 196 157 155 180 167 138 146 169 147 159 132 146 165 157 128 130 169 176 174 209 199 111 163 298 187 179 193 193 207 216 233 254 272 174 228 248 263 281 291 297 288
128 111 37 293 187 161 178 169 172 135 16 112 137 128 108 158 159 167 169 164 159 170 187 174 141 117 230 170 116 310 210 197 209 207 220 228 243 138 220 228 248 258 266 273 274